Content
SEND FEEDBACK

Daily
Averages
Monthly
Summary
Iran

MASMUDABAD, IRAN


Home > Middle East > Iran
Elevation: 4892 feet     Latitude: 29 31N     Longitude: 052 34E

WEATHER
 
SELECT A DAY
Number of Records: 202,712;   Date Range: 10/21/96 - 7/30/14
 
SHARE

PRINT THIS DATA

[ ← Previous Day ]
WEATHER ALMANAC - JANUARY 31, 2013
[ Next Day → ]
[ °C ]   °F
Weather ElementAverageHighLow
Temperature46 °F53.6 °F (12:20 pm)39.2 °F (2:30 am)
Dewpoint39.6 °F44.6 °F (11:00 pm)32 °F (12:30 am)
Humidity79.6 %100 % (8:00 pm)51 % (12:20 pm)
Barometer29.99 in30.06 in (8:20 am)29.91 in (3:30 pm)
Wind Speed3.3 mph16.1 mph (2:00 pm)
Weather ElementAverage
Visibility3.5 mi
Wind DirectionENE (84.2 °)

Weather ElementTotal
Precipitation---
Heating Degree Days18.6 (Base 65)
Averaged from 53 records on January 31, 2013
WEATHER CONDITIONS BREAKOUT
WIND DIRECTION BREAKOUT
WEATHER BY HOUR - JANUARY 31, 2013
[ °C ]   °F
Local TimeTemperatureDewpointHumidityBarometerVisibilityWind DirectionWind SpeedGust SpeedPrecipitationEventsConditions
12:30 AM42.8 °F32.0 °F66 %30.04 inCalmClear
1:00 AM42.8 °F32.0 °F66 %30.04 inCalmClear
1:30 AM41.0 °F32.0 °F70 %30.04 inCalmClear
2:00 AM42.8 °F33.8 °F70 %30.04 inCalmClear
2:30 AM39.2 °F32.0 °F75 %30.04 inWest (270°)4.6 mphClear
3:30 AM41.0 °F37.0 °F80 %29.94 in6.0 miCalmOvercast
5:20 AM44.6 °F37.4 °F76 %29.98 in6.2 miCalmOvercast
5:30 AM44.6 °F37.4 °F76 %29.98 in6.2 miCalmOvercast
6:20 AM41.0 °F35.6 °F81 %30.01 in6.2 miCalmOvercast
7:20 AM41.0 °F35.6 °F81 %30.01 in5.0 miCalmOvercast
8:20 AM42.8 °F39.2 °F87 %30.06 in4.3 miCalmOvercast
9:20 AM48.2 °F39.2 °F71 %30.06 in4.3 miCalmOvercast
10:20 AM50.0 °F37.4 °F62 %30.04 in4.3 miCalmOvercast
11:20 AM51.8 °F35.6 °F54 %30.04 in5.0 miCalmOvercast
11:30 AM51.8 °F35.6 °F54 %30.04 in5.0 miCalmOvercast
12:00 PM51.8 °F35.6 °F54 %30.01 in5.0 miNNE (30°)4.6 mphOvercast
12:20 PM53.6 °F35.6 °F51 %30.01 in5.0 miSouth (180°)4.6 mphOvercast
12:30 PM53.6 °F35.6 °F51 %30.01 in5.0 miSouth (180°)4.6 mphOvercast
1:00 PM53.6 °F35.6 °F51 %29.95 in4.3 miCalmOvercast
1:20 PM53.6 °F35.6 °F51 %29.98 in4.3 miCalmOvercast
1:30 PM53.6 °F35.6 °F51 %29.98 in4.3 miCalmOvercast
2:00 PM53.6 °F42.8 °F67 %29.98 inSSW (210°)16.1 mphRainLight Rain
2:20 PM48.2 °F39.2 °F71 %29.98 in3.7 miWest (270°)6.9 mphRainLight Rain
2:30 PM48.2 °F39.2 °F71 %29.98 inWest (270°)6.9 mphRainLight Rain
3:00 PM48.2 °F39.2 °F71 %29.98 inCalmRainLight Rain
3:20 PM48.2 °F41.0 °F76 %29.95 in3.7 miSouth (180°)6.9 mphRainLight Rain
3:30 PM48.2 °F41.0 °F76 %29.95 inSouth (180°)6.9 mphRainLight Rain
3:30 PM48.0 °F40.0 °F67 %29.91 in4.0 miSouth (180°)6.7 mphRainLight Rain
4:00 PM46.4 °F41.0 °F81 %29.98 inSW (230°)6.9 mphRainLight Rain
4:20 PM46.4 °F41.0 °F81 %29.98 in3.1 miCalmRainLight Rain
4:30 PM46.4 °F41.0 °F81 %29.98 inCalmRainLight Rain
5:00 PM44.6 °F42.8 °F93 %29.98 in3.1 miSSE (160°)4.6 mphRainRain
5:20 PM44.6 °F42.8 °F93 %29.98 in3.1 miSouth (180°)6.9 mphRainRain
5:30 PM44.6 °F42.8 °F93 %29.98 in3.1 miSouth (180°)6.9 mphRainRain
6:00 PM44.6 °F42.8 °F93 %29.98 in3.1 miESE (120°)2.3 mphRainRain
6:20 PM44.6 °F42.8 °F93 %29.98 in3.1 miCalmRainRain
6:30 PM44.6 °F42.8 °F93 %29.98 in3.1 miCalmRainRain
7:00 PM44.6 °F42.8 °F93 %29.98 in3.1 miSE (130°)6.9 mphRainRain
7:20 PM44.6 °F42.8 °F93 %29.98 in3.1 miESE (120°)4.6 mphRainRain
7:30 PM44.6 °F42.8 °F93 %29.98 in3.1 miESE (120°)4.6 mphRainRain
8:00 PM42.8 °F42.8 °F100 %29.98 in1.9 miESE (120°)4.6 mphRainRain
8:20 PM42.8 °F42.8 °F100 %29.98 in1.9 miESE (120°)4.6 mphRainRain
8:30 PM42.8 °F42.8 °F100 %29.98 in1.9 miESE (120°)4.6 mphRainRain
9:00 PM42.8 °F42.8 °F100 %29.98 in1.6 miESE (120°)6.9 mphRainRain
9:20 PM44.6 °F42.8 °F93 %29.98 in1.6 miESE (120°)6.9 mphRainRain
9:30 PM44.0 °F43.0 °F96 %29.91 in2.0 miESE (120°)6.7 mphRainRain
9:30 PM44.6 °F42.8 °F93 %29.98 in1.6 miESE (120°)6.9 mphRainRain
10:00 PM44.6 °F42.8 °F93 %30.01 in1.6 miCalmRainHeavy Rain
10:20 PM44.6 °F42.8 °F93 %30.01 in1.6 miCalmRainRain
10:30 PM44.6 °F42.8 °F93 %30.01 in1.6 miCalmRainRain
11:00 PM44.6 °F44.6 °F100 %29.98 in1.6 miSE (130°)6.9 mphRainRain
11:20 PM44.6 °F44.6 °F100 %29.95 in1.6 miESE (110°)6.9 mphRainRain
11:30 PM44.6 °F44.6 °F100 %29.95 in1.6 miESE (110°)6.9 mphRainRain
Hourly data recorded from OISS, located miles away from Masmudabad, Iran







STORIES FROM OUR PARTNERS